Regional Weather Roundup
Issued by NWS

Home | Current Version | Previous Version | Text Only | Print | Product List | Glossary Off
Versions: 1 2 3 4 5 6 7 8 9 10 11 12 13 14 15 16 17 18 19 20 21 22 23 24 25 26 27 28 29 30 31 32 33 34 35 36 37 38 39 40 41 42 43 44 45 46 47 48 49 50

000
ASUS43 KBIS 241110
RWRND

NORTH DAKOTA REGIONAL WEATHER ROUNDUP
NATIONAL WEATHER SERVICE BISMARCK ND
600 AM CDT TUE MAY 24 2016

NOTE: "FAIR" INDICATES FEW OR NO CLOUDS BELOW 12,000 FEET WITH NO
SIGNIFICANT WEATHER AND/OR OBSTRUCTIONS TO VISIBILITY.


NDZ001>003-009>011-017-241200-
NORTHWEST NORTH DAKOTA

CITY           SKY/WX    TMP DP  RH WIND       PRES   REMARKS
WILLISTON      CLEAR     45  40  82 SW5       29.83R
MINOT          CLEAR     50  40  68 CALM      29.81R
MINOT AFB      CLEAR     44  39  81 S5        29.80R
$$

NDZ018>021-031>035-040>046-241200-
SOUTHWEST NORTH DAKOTA

CITY           SKY/WX    TMP DP  RH WIND       PRES   REMARKS
BISMARCK       CLEAR     47  44  90 NW5       29.82R
DICKINSON      CLOUDY    40  35  83 NW9       29.84R
GARRISON         N/A     43  38  82 NW3       29.82R
HETTINGER ARPT PTCLDY    35  33  92 NW5       29.86R
$$

NDZ004>008-012>016-024-026-027-054-241200-
NORTHEAST NORTH DAKOTA

CITY           SKY/WX    TMP DP  RH WIND       PRES   REMARKS
GRAND FORKS    LGT RAIN  58  52  80 VRB5G18   29.80F
GRND FRKS AFB  CLOUDY    57  53  85 E3        29.79S
DEVILS LAKE    MOCLDY    60  46  59 SE3       29.82R
$$

NDZ022-023-025-028>030-036>039-047>053-241200-
SOUTHEAST NORTH DAKOTA

CITY           SKY/WX    TMP DP  RH WIND       PRES   REMARKS
FARGO          PTCLDY    60  49  66 N10       29.80R
JAMESTOWN      CLOUDY    55  51  86 N7        29.78R
$$





USA.gov is the U.S. government's official web portal to all federal, state and local government web resources and services.